Terug naar catalogus

ELECTRON KICK STAGE R/B

ActiefPO
NORAD 58993·ROCKET BODY·🇺🇸 United States

Gelanceerd Feb 18, 2024 vanaf Rocket Lab Launch Complex 1

Loading…

Volgende Passages (komende 24 uur)

TLE

VerouderendSource: Space-Track

Epoch: Sep 8, 2026, 06:18 UTC

1 58993U 24034B   26251.26251508  .06446075  29530-5  14192-2 0  9997
2 58993  98.1383 328.2481 0014844 275.5793  84.3805 16.30126430142657

Volg ELECTRON KICK STAGE R/B in realtime met AllMySat

Download on the App Store